GFSFLT1_250_rhum_000.txt.gz
RH
100 100 100 100 94 88 78 50 38 40 46 51 55 61 66 71 59 65 79 76 87 94 100 100 98 100 89 86 62 67 69 66
97 100 100 98 93 88 90 62 46 48 50 57 66 68 67 58 45 49 55 64 73 78 83 98 100 100 96 80 80 78 88 66
62 78 98 95 92 81 64 44 38 39 44 45 43 46 49 50 50 55 56 66 72 84 77 82 79 90 95 86 86 87 86 84
74 76 75 81 71 65 54 40 30 34 47 54 46 58 65 69 70 74 77 85 91 95 95 83 68 84 97 86 96 100 95 94
89 72 70 68 74 73 73 66 47 54 60 57 52 68 64 60 59 59 57 59 66 74 74 78 80 85 73 88 93 98 73 70
65 58 51 60 75 78 72 68 87 100 100 100 100 100 100 82 70 64 61 58 59 64 68 77 80 80 82 96 100 84 74 69
34 39 40 51 57 59 56 89 100 100 100 99 100 100 86 65 59 60 65 62 67 73 78 86 88 76 81 89 82 66 67 52
30 31 36 37 31 60 91 69 62 58 55 63 73 83 77 74 69 62 52 56 55 66 78 82 77 69 77 71 60 61 43 34
29 30 26 31 51 56 51 45 41 49 58 66 68 58 50 46 52 47 45 51 62 73 84 84 79 70 60 53 50 35 25 21
38 53 60 47 56 62 57 48 56 65 66 64 52 53 64 68 56 60 77 88 88 87 73 50 46 54 50 47 36 27 21 16
57 47 45 51 58 61 70 75 65 57 56 57 68 80 82 81 75 65 51 45 45 43 40 44 48 45 36 27 21 18 15 16
44 41 38 40 47 55 61 63 66 81 96 99 93 77 60 51 43 40 42 41 39 43 44 43 35 27 22 18 16 14 14 16
36 33 44 56 70 67 78 97 100 83 76 66 58 48 43 43 43 43 41 42 36 31 23 18 16 14 14 14 12 13 15 12
63 79 94 88 99 99 82 67 72 79 64 47 46 50 52 46 42 38 36 27 19 10 10 11 13 13 12 11 13 14 12 8
92 92 99 87 64 61 73 81 64 54 52 51 53 50 41 28 23 20 16 12 9 12 13 12 10 11 12 14 13 12 8 7
80 74 66 62 56 64 61 54 51 54 56 51 41 32 21 17 14 12 11 11 11 12 10 11 14 13 12 12 11 8 7 8
57 52 58 58 60 59 57 62 65 57 44 33 27 17 15 13 12 11 11 10 10 10 12 12 11 10 11 11 8 7 8 8
46 56 65 70 61 55 58 66 53 38 32 25 16 15 16 14 13 12 11 10 11 11 10 10 10 9 8 7 7 8 8 6
73 69 62 56 60 59 57 49 33 27 23 18 17 17 17 16 15 15 14 15 14 12 10 9 8 7 7 7 8 7 6 5

GFSFLT1_250_rhum_003.txt.gz
RH
94 82 94 91 89 86 87 86 78 61 51 54 66 64 56 56 66 75 81 82 83 81 78 72 67 78 90 96 96 91 83 63
93 73 76 77 66 60 57 57 55 62 72 78 68 61 53 55 58 66 77 74 66 59 58 53 51 52 53 57 62 72 64 59
60 66 55 43 42 46 41 39 41 44 43 46 51 54 57 53 43 46 54 49 53 58 59 55 49 51 55 55 52 53 60 64
29 42 49 45 38 37 36 37 39 36 33 44 53 58 61 49 72 85 90 89 78 68 65 64 61 57 58 58 57 61 58 60
26 40 46 42 42 57 67 85 91 89 99 98 100 100 100 100 100 100 100 99 98 97 95 89 72 61 48 42 47 51 63 71
46 42 40 43 65 85 82 87 84 88 86 98 100 99 100 100 100 100 100 100 88 76 61 52 46 45 43 43 45 40 40 40
33 33 36 48 48 53 55 54 66 75 76 75 67 58 56 57 55 47 47 47 44 39 36 35 35 32 34 36 37 39 40 45
27 28 34 42 43 41 40 37 31 33 37 39 42 46 39 34 32 28 33 34 32 32 36 40 41 42 41 40 36 36 36 40
28 33 32 29 30 35 36 37 41 42 42 42 41 38 41 48 50 46 39 46 48 44 43 43 42 41 31 26 27 28 23 18
33 34 41 44 50 53 54 50 52 58 60 59 53 62 59 56 52 45 48 48 43 44 40 34 26 19 18 15 16 16 11 9
59 58 52 49 48 44 48 53 47 45 49 61 61 59 54 52 46 47 48 52 43 32 30 21 17 15 13 11 10 9 10 13
49 49 48 47 44 46 55 58 67 81 81 71 64 58 48 55 63 63 57 40 26 23 18 17 17 15 14 13 12 11 12 12
52 45 47 56 74 79 92 97 92 69 76 65 58 56 56 60 62 56 36 25 22 18 18 18 17 15 15 14 12 10 10 11
49 67 77 71 71 69 67 77 86 68 64 46 55 56 61 63 54 35 27 22 18 17 16 15 15 15 13 11 11 12 14 16
55 58 60 74 80 79 78 72 66 54 50 62 66 60 62 56 36 28 23 20 17 16 16 16 16 16 16 15 15 15 14 12
57 74 90 87 76 74 65 60 60 61 68 64 62 57 41 31 26 24 21 17 16 16 16 16 16 15 15 14 13 13 11 10
81 92 70 73 76 68 69 72 75 74 60 56 49 35 26 19 16 14 14 13 13 13 13 13 13 13 13 12 12 12 10 7
80 77 86 88 79 76 79 73 63 53 48 41 31 22 17 15 13 13 12 12 12 12 11 11 11 10 10 10 10 8 6 6
60 81 99 95 97 84 75 68 50 43 34 23 17 15 14 13 12 12 12 12 11 11 10 10 10 9 9 8 7 6 6 6

GFSFLT1_250_rhum_009.txt.gz
RH
29 26 26 27 30 28 24 23 23 26 25 27 39 53 40 39 40 42 46 45 45 45 44 45 46 49 52 55 58 57 55 48
21 21 21 24 24 24 22 20 21 25 26 40 45 43 41 42 49 50 53 50 51 56 66 80 88 89 78 71 64 61 61 62
26 21 23 24 23 23 21 22 30 36 52 49 47 49 52 63 79 91 84 82 87 100 98 81 70 64 51 50 49 47 44 46
25 24 25 28 26 32 37 45 53 54 52 54 68 77 80 77 75 79 86 81 72 74 71 68 63 57 50 48 50 47 41 40
27 24 26 26 31 46 65 67 62 73 86 78 69 60 55 58 59 64 61 58 62 67 54 52 56 56 59 58 52 49 54 54
21 22 32 50 70 80 80 76 76 75 65 58 54 52 51 50 49 51 58 60 50 44 40 42 60 69 66 64 61 61 56 53
37 52 68 78 78 67 62 57 54 54 53 52 50 50 51 60 61 58 54 46 44 50 63 68 81 78 68 65 62 56 52 44
68 73 72 70 68 61 52 50 47 44 44 52 59 64 60 57 54 48 48 59 71 85 74 70 75 84 80 72 67 58 47 35
58 61 65 60 47 38 38 42 47 52 54 50 47 49 51 55 59 67 73 73 72 68 63 68 65 61 52 46 38 39 33 28
46 53 62 43 39 35 39 42 42 47 45 48 59 63 73 75 85 92 92 81 76 72 65 54 45 40 27 20 17 17 18 18
64 58 47 52 44 38 42 49 48 59 70 69 83 96 91 92 100 98 90 84 67 64 53 34 24 19 15 14 14 13 13 14
56 56 57 51 39 44 52 71 87 85 97 100 100 99 91 91 83 81 74 61 46 36 29 22 15 13 12 10 10 9 9 9
48 41 40 44 51 62 82 94 100 100 100 100 99 99 98 88 78 61 53 44 28 19 14 12 10 9 8 7 7 7 7 8
53 63 63 58 76 95 90 100 100 100 100 100 100 100 97 81 70 51 29 18 14 11 9 8 6 6 6 6 6 7 7 7
65 65 75 89 91 97 100 100 100 100 100 98 98 87 81 58 39 20 15 12 10 7 6 6 6 7 7 7 8 7 8 8
69 82 96 93 100 100 100 100 100 100 98 92 82 65 36 23 18 14 12 9 7 6 7 7 8 8 8 8 8 9 9 8
85 98 100 100 100 100 100 100 95 80 78 77 57 28 16 14 12 10 8 6 6 7 7 7 8 8 8 8 9 9 9 9
100 100 100 100 100 98 99 79 76 73 72 58 21 14 12 10 8 7 7 7 8 8 8 8 8 7 6 6 6 6 6 7
98 92 96 88 91 81 78 71 70 69 54 20 13 12 10 7 6 7 7 7 7 8 8 7 5 4 4 4 4 4 4 4

GFSFLT1_250_rhum_015.txt.gz
RH
24 20 17 21 20 21 22 25 27 24 25 43 57 56 58 65 62 65 57 46 40 38 38 42 49 55 58 63 73 74 83 96
19 19 21 27 26 26 26 23 26 43 48 48 51 53 58 61 50 38 35 36 40 42 44 49 46 42 45 60 67 83 99 93
21 25 25 21 21 20 24 43 46 45 47 52 62 66 56 45 41 43 43 42 45 46 47 44 45 52 55 57 62 71 85 79
24 22 22 22 28 43 53 56 58 55 53 65 62 53 40 41 43 43 45 46 46 52 60 57 56 54 58 60 86 90 84 98
22 23 23 32 47 60 65 68 64 66 68 62 67 50 44 47 51 54 59 65 73 79 81 74 72 75 76 97 100 100 95 89
29 24 29 54 68 70 70 66 68 64 65 60 51 48 44 44 62 74 85 94 100 94 68 73 98 99 99 85 84 93 84 77
25 23 40 65 74 73 69 67 54 51 53 52 48 50 56 69 76 84 87 87 85 90 100 100 100 96 100 97 100 95 72 70
23 32 52 71 76 72 74 69 56 54 55 53 55 63 72 81 89 99 100 97 100 100 100 98 91 95 96 90 79 72 68 50
34 54 73 74 66 53 50 50 55 48 46 53 66 75 86 96 99 100 100 100 100 100 91 99 99 96 80 73 70 63 47 44
67 66 56 51 45 47 48 46 51 59 65 70 88 96 92 97 99 95 100 99 98 76 68 77 82 80 59 46 35 27 19 13
54 50 46 44 49 50 45 52 63 75 94 100 78 59 67 90 100 100 100 91 73 69 68 60 48 42 34 27 20 12 11 10
37 40 44 42 44 46 57 72 95 100 90 73 69 96 100 100 91 68 62 69 60 60 44 36 25 17 13 12 11 9 7 6
42 43 44 47 52 61 83 100 88 79 78 97 100 100 100 86 86 64 62 54 44 28 19 15 13 12 11 8 6 6 6 6
47 51 53 54 72 96 99 85 90 100 100 99 94 94 80 62 54 51 43 26 18 15 12 12 11 8 6 6 5 6 5 5
51 56 66 86 97 98 84 98 99 91 95 94 85 63 51 51 44 37 22 16 13 12 12 8 6 5 6 5 5 4 3 3
62 73 96 100 100 100 100 97 97 94 85 59 52 47 44 38 33 20 14 12 12 10 6 6 6 5 5 3 3 3 3 3
99 100 100 100 96 82 89 91 66 45 50 59 53 42 32 23 17 14 12 11 8 6 6 5 4 3 4 3 4 3 3 3
96 88 77 74 75 66 50 62 61 60 43 37 30 23 19 15 13 12 9 6 6 5 4 3 3 3 4 4 4 4 4 3
83 79 72 62 52 76 88 75 52 36 32 24 19 18 14 12 9 6 6 5 4 3 3 4 4 4 5 4 4 4 4 4